Location: Alexandria
(38.8050°N, 77.0470°W)
Time: 00:16:41
(UTC-05:00)

Vanguard 3 - Visible Passes

Search period start: 17 January 2018 00:00
Search period end: 27 January 2018 00:00
Orbit: 508 x 3264 km, 33.4° (Epoch: 15 January)

Date Brightness Start Highest point End Pass type
(mag) Time Alt. Az. Time Alt. Az. Time Alt. Az.
17 Jan 10.7 01:34:08 36° E 01:34:08 36° E 01:43:58 10° E visible
17 Jan 9.8 03:38:41 69° SW 03:41:09 74° S 03:59:56 10° E visible
17 Jan 10.1 05:43:15 22° W 05:58:00 64° SSW 06:13:35 10° ESE visible
18 Jan 11.4 00:24:16 15° E 00:24:16 15° E 00:26:42 10° E visible
18 Jan 10.2 02:28:49 58° ESE 02:28:49 58° ESE 02:43:54 10° E visible
18 Jan 10.0 04:33:23 47° WSW 04:41:15 72° S 04:58:59 10° ESE visible
18 Jan 10.3 06:38:33 10° W 06:57:04 49° SSW 07:11:06 10° SE visible
19 Jan 10.8 01:18:58 31° E 01:18:58 31° E 01:27:10 10° E visible
19 Jan 9.8 03:23:31 74° SSW 03:24:11 74° S 03:43:31 10° E visible
19 Jan 10.1 05:28:05 27° W 05:41:00 62° SSW 05:57:22 10° SE visible
20 Jan 11.5 00:09:06 11° E 00:09:06 11° E 00:09:46 10° E visible
20 Jan 10.3 02:13:40 52° ESE 02:13:40 52° ESE 02:27:14 10° E visible
20 Jan 9.9 04:18:13 53° WSW 04:24:15 70° SSW 04:42:38 10° ESE visible
20 Jan 10.4 06:22:47 12° W 06:40:03 46° SSW 06:54:47 10° SSE visible
21 Jan 11.0 01:03:49 26° E 01:03:49 26° E 01:10:17 10° E visible
21 Jan 9.9 03:08:23 73° SSE 03:08:23 73° SSE 03:26:57 10° ESE visible
21 Jan 10.2 05:12:57 32° W 05:23:56 59° SSW 05:41:00 10° SE visible
22 Jan 10.4 01:58:34 45° ESE 01:58:34 45° ESE 02:10:27 10° E visible
22 Jan 9.9 04:03:08 59° WSW 04:07:13 68° SSW 04:26:07 10° ESE visible
22 Jan 10.5 06:07:42 15° W 06:22:58 43° SW 06:38:15 10° SSE visible
23 Jan 11.2 00:48:46 21° E 00:48:46 21° E 00:53:17 10° E visible
23 Jan 10.0 02:53:20 66° SE 02:53:20 66° SE 03:10:16 10° ESE visible
23 Jan 10.2 04:57:54 36° W 05:06:51 55° SSW 05:24:26 10° SE visible
24 Jan 10.6 01:43:35 37° ESE 01:43:35 37° ESE 01:53:33 10° E visible
24 Jan 9.8 03:48:09 63° SW 03:50:12 65° SSW 04:09:27 10° ESE visible
24 Jan 10.5 05:52:43 19° W 06:05:50 40° SW 06:21:30 10° SSE visible
25 Jan 11.3 00:33:51 15° E 00:33:51 15° E 00:36:14 10° E visible
25 Jan 10.1 02:38:26 57° SE 02:38:26 57° SE 02:53:26 10° ESE visible
25 Jan 10.1 04:43:00 40° WSW 04:49:44 52° SSW 05:07:41 10° SE visible
25 Jan 10.9 06:50:28 10° W 07:04:09 24° SW 07:16:35 10° S visible
26 Jan 10.8 01:28:44 30° ESE 01:28:44 30° ESE 01:36:33 10° E visible
26 Jan 9.9 03:33:19 62° SSW 03:33:19 62° SSW 03:52:37 10° SE visible
26 Jan 10.6 05:37:54 22° W 05:48:42 36° SW 06:04:29 10° SSE visible
